Weather History for Camden, AR

Change the Weather History Date:

Tuesday, November 20, 2012

  Actual Average Record
Temperature  
Mean Temperature 62 °F -  
Max Temperature 77 °F 65 °F 82 °F (1985)
Min Temperature 46 °F 42 °F 17 °F (1951)
Degree Days  
Heating Degree Days 2    
Growing Degree Days 12 (Base 50)    
Moisture  
Dew Point 47 °F    
Average Humidity 66    
Maximum Humidity 94    
Minimum Humidity 25    
Precipitation  
Precipitation 0.00 in - - ()
Sea Level Pressure  
Sea Level Pressure 30.17 in    
Wind  
Wind Speed 1 mph (West)    
Max Wind Speed 6 mph    
Max Gust Speed -    
Visibility 8 miles    
Events Fog    
Averages and records for this station are not official NWS values.
T = Trace of Precipitation, MM = Missing Value Source: NWS Daily Summary

Daily Weather History Graph

Daily Weather History Graph

Search for Another Location

Airport:

Trip Planner

Search our weather history database for the weather conditions in past years. The results will help you decide how hot, cold, wet, or windy it might be!

Date:

Astronomy

Nov. 20, 2012 Rise Set
Actual Time 6:47 AM CST 5:05 PM CST
Civil Twilight 6:21 AM CST 5:32 PM CST
Nautical Twilight 5:50 AM CST 6:02 PM CST
Astronomical Twilight 5:21 AM CST 6:32 PM CST
Moon 12:32 PM CST (11/20) No Moon Set
Length of Visible Light 11h 10m
Length of Day
10h 17m
First Quarter, 51% of the Moon is Illuminated
Nov 20
First Quarter
Nov 28
Full
Dec 6
Last Quarter
Dec 13
New
Dec 19
First Quarter

Hourly Weather History & Observations

Time (CST) Temp. Dew Point Humidity Pressure Visibility Wind Dir Wind Speed Gust Speed Precip Events Conditions
12:15 AM 55.4 °F 46.4 °F 72% 30.19 in 10.0 mi Calm Calm - N/A   Overcast
12:35 AM 55.4 °F 44.6 °F 67% 30.18 in 10.0 mi Calm Calm - N/A   Overcast
12:55 AM 55.4 °F 44.6 °F 67% 30.18 in 10.0 mi Calm Calm - N/A   Overcast
1:15 AM 55.4 °F 44.6 °F 67% 30.17 in 10.0 mi Calm Calm - N/A   Overcast
1:35 AM 55.4 °F 46.4 °F 72% 30.17 in 10.0 mi Calm Calm - N/A   Overcast
1:55 AM 55.4 °F 46.4 °F 72% 30.18 in 10.0 mi Calm Calm - N/A   Overcast
2:15 AM 53.6 °F 46.4 °F 77% 30.18 in 10.0 mi Calm Calm - N/A   Overcast
2:35 AM 53.6 °F 46.4 °F 77% 30.18 in 10.0 mi Calm Calm - N/A   Mostly Cloudy
6:15 AM 50.0 °F 46.4 °F 87% 30.20 in 10.0 mi Calm Calm - N/A   Partly Cloudy
6:35 AM 50.0 °F 46.4 °F 87% 30.20 in 10.0 mi Calm Calm - N/A   Mostly Cloudy
6:55 AM 50.0 °F 46.4 °F 87% 30.20 in 10.0 mi Calm Calm - N/A   Overcast
7:15 AM 51.8 °F 48.2 °F 88% 30.21 in 9.0 mi Calm Calm - N/A   Overcast
7:35 AM 51.8 °F 48.2 °F 88% 30.21 in 9.0 mi Calm Calm - N/A   Overcast
7:55 AM 53.6 °F 48.2 °F 82% 30.22 in 9.0 mi Calm Calm - N/A   Overcast
8:15 AM 53.6 °F 48.2 °F 82% 30.22 in 10.0 mi Calm Calm - N/A   Overcast
8:35 AM 55.4 °F 48.2 °F 77% 30.22 in 9.0 mi Calm Calm - N/A   Overcast
8:55 AM 57.2 °F 48.2 °F 72% 30.23 in 9.0 mi Calm Calm - N/A   Mostly Cloudy
9:15 AM 57.2 °F 48.2 °F 72% 30.23 in 9.0 mi Calm Calm - N/A   Overcast
9:35 AM 59.0 °F 46.4 °F 63% 30.23 in 10.0 mi Calm Calm - N/A   Overcast
9:55 AM 62.6 °F 46.4 °F 55% 30.23 in 9.0 mi Calm Calm - N/A   Mostly Cloudy
10:15 AM 62.6 °F 46.4 °F 55% 30.23 in 10.0 mi Calm Calm - N/A   Mostly Cloudy
10:35 AM 66.2 °F 46.4 °F 49% 30.21 in 10.0 mi Calm Calm - N/A   Scattered Clouds
10:55 AM 68.0 °F 46.4 °F 46% 30.20 in 10.0 mi Calm Calm - N/A   Clear
11:15 AM 71.6 °F 42.8 °F 35% 30.19 in 10.0 mi Calm Calm - N/A   Clear
11:35 AM 73.4 °F 42.8 °F 33% 30.18 in 10.0 mi SW 4.6 mph - N/A   Clear
11:55 AM 73.4 °F 42.8 °F 33% 30.17 in 10.0 mi Calm Calm - N/A   Clear
12:15 PM 75.2 °F 41.0 °F 29% 30.16 in 10.0 mi WSW 5.8 mph - N/A   Clear
12:55 PM 75.2 °F 42.8 °F 31% 30.14 in 10.0 mi Calm Calm - N/A   Clear
1:15 PM 77.0 °F 44.6 °F 32% 30.14 in 10.0 mi Calm Calm - N/A   Clear
1:35 PM 77.0 °F 46.4 °F 34% 30.14 in 10.0 mi WNW 4.6 mph - N/A   Clear
1:50 PM 75.2 °F 37.4 °F 25% 30.05 in 40.0 mi Variable 4.6 mph - N/A   Partly Cloudy
2:15 PM 77.0 °F 48.2 °F 36% 30.12 in 10.0 mi WNW 5.8 mph - N/A   Clear
2:35 PM 75.2 °F 46.4 °F 36% 30.12 in 10.0 mi SSW 4.6 mph - N/A   Clear
2:55 PM 77.0 °F 46.4 °F 34% 30.11 in 9.0 mi WSW 4.6 mph - N/A   Clear
3:15 PM 75.2 °F 46.4 °F 36% 30.11 in 10.0 mi WNW 5.8 mph - N/A   Clear
3:35 PM 77.0 °F 46.4 °F 34% 30.11 in 10.0 mi Calm Calm - N/A   Clear
3:55 PM 75.2 °F 48.2 °F 38% 30.12 in 10.0 mi West 3.5 mph - N/A   Clear
4:15 PM 73.4 °F 48.2 °F 41% 30.11 in 10.0 mi WSW 3.5 mph - N/A   Clear
4:35 PM 73.4 °F 48.2 °F 41% 30.11 in 10.0 mi Calm Calm - N/A   Clear
4:55 PM 68.0 °F 48.2 °F 49% 30.11 in 10.0 mi Calm Calm - N/A   Clear
5:15 PM 64.4 °F 50.0 °F 59% 30.11 in 3.0 mi Calm Calm - N/A   Haze
5:35 PM 62.6 °F 50.0 °F 63% 30.11 in 5.0 mi Calm Calm - N/A   Haze
5:55 PM 59.0 °F 50.0 °F 72% 30.12 in 7.0 mi Calm Calm - N/A   Clear
6:15 PM 59.0 °F 50.0 °F 72% 30.13 in 7.0 mi Calm Calm - N/A   Clear
6:35 PM 57.2 °F 50.0 °F 77% 30.13 in 7.0 mi Calm Calm - N/A   Clear
6:55 PM 55.4 °F 50.0 °F 82% 30.14 in 8.0 mi Calm Calm - N/A   Clear
7:15 PM 55.4 °F 48.2 °F 77% 30.14 in 7.0 mi Calm Calm - N/A   Clear
7:35 PM 53.6 °F 48.2 °F 82% 30.15 in 7.0 mi Calm Calm - N/A   Clear
7:55 PM 53.6 °F 48.2 °F 82% 30.16 in 7.0 mi Calm Calm - N/A   Scattered Clouds
8:15 PM 53.6 °F 48.2 °F 82% 30.16 in 7.0 mi Calm Calm - N/A   Scattered Clouds
8:35 PM 53.6 °F 48.2 °F 82% 30.16 in 8.0 mi Calm Calm - N/A   Clear
8:55 PM 53.6 °F 48.2 °F 82% 30.16 in 7.0 mi Calm Calm - N/A   Clear
9:15 PM 51.8 °F 48.2 °F 88% 30.17 in 5.0 mi Calm Calm - N/A   Clear
9:35 PM 50.0 °F 48.2 °F 94% 30.17 in 5.0 mi Calm Calm - N/A   Clear
9:55 PM 50.0 °F 48.2 °F 94% 30.17 in 3.0 mi Calm Calm - N/A   Clear
10:15 PM 50.0 °F 48.2 °F 94% 30.18 in 3.0 mi Calm Calm - N/A   Clear
10:35 PM 50.0 °F 48.2 °F 94% 30.17 in 3.0 mi Calm Calm - N/A   Clear
10:55 PM 48.2 °F 46.4 °F 93% 30.18 in 1.2 mi Calm Calm - N/A   Clear
11:15 PM 48.2 °F 46.4 °F 93% 30.18 in 1.5 mi Calm Calm - N/A   Clear
11:35 PM 48.2 °F 46.4 °F 93% 30.18 in 1.8 mi Calm Calm - N/A   Clear
11:55 PM 46.4 °F 44.6 °F 93% 30.18 in 0.2 mi Calm Calm - N/A Fog Fog